[[{"header":{"parameterUnit":"m.s-1","parameterCategory":1,"la1":30.2991,"la2":30.254,"lo1":-89.0895,"lo2":-89.0444,"dy":0.0017,"dx":0.0017,"nx":28,"ny":28,"refTime":"2024-04-15T03:00:00:Z","depth":0,"parameterNumber":2,"parameterNumberName":"U-component_of_WINDS"},"data":[0,0,0,0,0,0,0,0,0,0,0,0,0,0,0,0,0,0,0,0,0,0,0,0,0,0,0,0,0,0,0,0,0,0,0,0,0,0,0,0,0,0,0,0,0,0,0,0,0,0,0,0,0,0,0,0,0,0,-0.871,-0.871,0,-0.8738,-0.8738,-0.8739,-0.8727,-0.8727,-0.8726,-0.8725,-0.8756,-0.8758,-0.8759,0,0,0,0,0,0,0,0,0,0,0,0,0,-0.8649,-0.865,-0.871,-0.871,-0.871,-0.8738,-0.8738,-0.8739,-0.8727,-0.8727,-0.8726,-0.8725,-0.8756,-0.8757,-0.8759,0,0,0,0,0,0,0,0,0,0,0,0,0,-0.8676,-0.865,-0.871,-0.8708,-0.8708,-0.8738,-0.8738,-0.8739,-0.8728,-0.8727,-0.8726,-0.8725,-0.8755,-0.8757,-0.8759,-0.8793,0,0,-0.8766,-0.8767,0,0,0,0,0,0,0,0,-0.8674,-0.8678,-0.8708,-0.8708,-0.8708,-0.8728,-0.8728,-0.8757,-0.8728,-0.872,-0.8725,-0.8724,-0.8748,-0.875,-0.8758,-0.8794,-0.8796,-0.8766,-0.8768,-0.8768,-0.8769,0,0,0,0,0,0,0,-0.8672,-0.8677,-0.8721,-0.8708,-0.8709,-0.8707,-0.871,-0.8734,-0.8739,-0.8721,-0.872,-0.8723,-0.8748,-0.8756,-0.8759,-0.8796,-0.8766,-0.8768,-0.8769,-0.877,-0.8862,-0.8863,0,0,0,0,0,0,-0.867,-0.8675,-0.872,-0.8722,-0.8688,-0.8709,-0.8712,-0.8723,-0.8739,-0.8741,-0.8724,-0.8723,-0.8753,-0.8756,-0.876,-0.88,-0.8768,-0.877,-0.8772,-0.8861,-0.8863,-0.8864,0,0,0,0,0,0,-0.8669,-0.8674,-0.8719,-0.8698,-0.8704,-0.8711,-0.8723,-0.8724,-0.8732,-0.8742,-0.8743,-0.8731,-0.8752,-0.8757,-0.8785,-0.8801,-0.8771,-0.8773,-0.886,-0.8862,-0.8863,-0.8882,0,0,0,0,0,0,-0.8667,-0.8674,-0.8686,-0.8699,-0.8705,-0.8743,-0.8724,-0.8725,-0.8736,-0.8734,-0.8749,-0.875,-0.8752,-0.8782,-0.8787,-0.8804,-0.8775,-0.8858,-0.8861,-0.8863,-0.888,-0.8884,-0.8888,0,0,0,0,0,-0.8665,-0.8691,-0.8687,-0.8692,-0.872,-0.8744,-0.8748,-0.8748,-0.8737,-0.875,-0.8756,-0.875,-0.8799,-0.8785,-0.8791,-0.8808,-0.8857,-0.886,-0.8862,-0.8878,-0.8883,-0.8888,0,0,0,0,0,0,-0.868,-0.8692,-0.8688,-0.8718,-0.873,-0.8742,-0.8758,-0.8753,-0.8769,-0.8767,-0.8768,-0.8771,-0.88,-0.8807,-0.8791,-0.8842,-0.8826,-0.883,-0.8836,-0.8841,-0.8845,-0.8843,-0.8777,0,0,0,0,0,-0.8687,-0.8704,-0.8714,-0.874,-0.8746,-0.8751,-0.8761,-0.8761,-0.8773,-0.8778,-0.8787,-0.88,-0.8818,-0.883,-0.8847,-0.8881,-0.8884,-0.8896,-0.89,-0.8903,-0.8907,-0.8926,-0.8931,-0.8872,-0.8872,-0.8872,0,0,-0.8701,-0.871,-0.8721,-0.8743,-0.8752,-0.8771,-0.8755,-0.8776,-0.879,-0.8782,-0.8809,-0.8815,-0.883,-0.8861,-0.8875,-0.8868,-0.8924,-0.8907,-0.8909,-0.8911,-0.8929,-0.8934,-0.8939,-0.8874,-0.8874,-0.8873,0,0,-0.8737,-0.8745,-0.8768,-0.8777,-0.8791,-0.8794,-0.88,-0.8812,-0.8816,-0.8843,-0.8837,-0.8855,-0.8886,-0.8897,-0.8907,-0.8947,-0.8942,-0.8953,-0.8973,-0.8992,-0.8997,-0.9001,-0.9016,-0.9021,-0.8956,-0.8956,-0.8956,0,-0.8754,-0.8781,-0.878,-0.8801,-0.8811,-0.8804,-0.8828,-0.8837,-0.8856,-0.8864,-0.8855,-0.8895,-0.8904,-0.8938,-0.8948,-0.8956,-0.8962,-0.8951,-0.8996,-0.9,-0.9004,-0.9018,-0.9024,-0.8958,-0.8957,-0.8957,-0.8957,0,-0.88,-0.882,-0.8836,-0.8854,-0.8866,-0.8888,-0.8892,-0.8905,-0.8903,-0.8908,-0.8936,-0.8947,-0.8966,-0.8974,-0.8973,-0.9009,-0.9003,-0.8995,-0.898,-0.9011,-0.9024,-0.903,-0.8959,-0.8959,-0.8959,-0.8958,0,0,-0.8846,-0.8864,-0.887,-0.8878,-0.8893,-0.8908,-0.8931,-0.8949,-0.896,-0.8974,-0.8993,-0.902,-0.9013,-0.9024,-0.9024,-0.904,-0.9072,-0.903,-0.9031,-0.9038,-0.9112,-0.9119,-0.9125,-0.9069,-0.907,-0.9071,-0.9111,0,-0.8884,-0.8922,-0.8922,-0.8957,-0.8975,-0.8969,-0.8989,-0.9,-0.9005,-0.9022,-0.9028,-0.9047,-0.9036,-0.9042,-0.9058,-0.9065,-0.9087,-0.9062,-0.9088,-0.9089,-0.9084,-0.9132,-0.9138,-0.9176,-0.9117,-0.9117,-0.9118,0,-0.8932,-0.8947,-0.8983,-0.8996,-0.9004,-0.9021,-0.9039,-0.9054,-0.9068,-0.9071,-0.9083,-0.9081,-0.9105,-0.9088,-0.9121,-0.9104,-0.9115,-0.912,-0.9121,-0.9124,-0.9105,-0.9136,-0.9188,-0.9194,-0.9126,-0.9126,-0.9125,0,-0.8962,-0.8991,-0.9017,-0.9025,-0.904,-0.9052,-0.9059,-0.9072,-0.9083,-0.9099,-0.9107,-0.9125,-0.9135,-0.915,-0.9153,-0.9141,-0.9187,-0.917,-0.919,-0.919,-0.92,-0.92,-0.9255,-0.9207,-0.9207,-0.9206,-0.9206,0,-0.9004,-0.9027,-0.9031,-0.9047,-0.9073,-0.9074,-0.91,-0.9106,-0.9117,-0.9135,-0.9131,-0.9148,-0.9151,-0.9169,-0.9172,-0.9199,-0.9204,-0.9207,-0.9208,-0.9208,-0.9207,-0.9215,-0.9213,-0.9208,-0.9208,-0.9207,-0.9207,0,-0.9042,-0.9046,-0.9074,-0.9086,-0.909,-0.9108,-0.9119,-0.9135,-0.9139,-0.9162,-0.9168,-0.9175,-0.9196,-0.9201,-0.9226,-0.9228,-0.926,-0.9258,-0.9256,-0.9256,-0.9275,-0.9273,-0.9337,-0.9346,-0.9292,-0.9292,-0.9293,0,-0.9069,-0.9086,-0.91,-0.9111,-0.9119,-0.9137,-0.9149,-0.915,-0.9163,-0.918,-0.9194,-0.9214,-0.9231,-0.9265,-0.9273,-0.9292,-0.9291,-0.9312,-0.9294,-0.9294,-0.9292,-0.9291,-0.9293,-0.9316,-0.9316,-0.9317,-0.9317,0,-0.9116,-0.9117,-0.9133,-0.915,-0.9164,-0.9178,-0.9191,-0.92,-0.9204,-0.9218,-0.9239,-0.9252,-0.9278,-0.9298,-0.9318,-0.9326,-0.9323,-0.9323,-0.9328,-0.9329,-0.9326,-0.9328,-0.9265,-0.9321,-0.9321,-0.932,-0.932,-0.932,-0.9149,-0.9165,-0.9177,-0.9195,-0.9205,-0.9218,-0.9233,-0.924,-0.9257,-0.9277,-0.9277,-0.9301,-0.9315,-0.934,-0.935,-0.9369,-0.9362,-0.9371,-0.9373,-0.9375,-0.9377,-0.9323,-0.9372,-0.9372,-0.9372,-0.9372,-0.9372,0,-0.9196,-0.9204,-0.9221,-0.9239,-0.9254,-0.9248,-0.9263,-0.9276,-0.9296,-0.9309,-0.9325,-0.935,-0.937,-0.938,-0.94,-0.9413,-0.9412,-0.9418,-0.9418,-0.942,-0.9381,-0.9374,-0.9419,-0.9419,-0.9419,-0.9419,-0.9419,-0.9419,-0.9222,-0.9248,-0.9251,-0.9282,-0.9289,-0.9311,-0.932,-0.9332,-0.9342,-0.937,-0.9386,-0.9392,-0.9404,-0.9425,-0.9444,-0.9446,-0.9454,-0.9462,-0.9463,-0.9427,-0.9422,-0.9418,-0.9411,-0.9463,-0.9463,-0.95,-0.9501,-0.9501]},{"header":{"parameterUnit":"m.s-1","parameterCategory":1,"la1":30.2991,"la2":30.254,"lo1":-89.0895,"lo2":-89.0444,"dy":0.0017,"dx":0.0017,"nx":28,"ny":28,"refTime":"2024-04-15T03:00:00:Z","depth":0,"parameterNumber":3,"parameterNumberName":"V-component_of_WINDS"},"data":[0,0,0,0,0,0,0,0,0,0,0,0,0,0,0,0,0,0,0,0,0,0,0,0,0,0,0,0,0,0,0,0,0,0,0,0,0,0,0,0,0,0,0,0,0,0,0,0,0,0,0,0,0,0,0,0,0,0,2.4971,2.497,0,2.4941,2.4941,2.494,2.4898,2.4897,2.4896,2.4896,2.4865,2.4865,2.4865,0,0,0,0,0,0,0,0,0,0,0,0,0,2.4991,2.4991,2.4971,2.497,2.497,2.4941,2.4941,2.494,2.4898,2.4897,2.4896,2.4895,2.4865,2.4865,2.4865,0,0,0,0,0,0,0,0,0,0,0,0,0,2.4974,2.499,2.4971,2.4945,2.4943,2.4941,2.4941,2.494,2.4898,2.4897,2.4896,2.4895,2.4865,2.4865,2.4865,2.4886,0,0,2.4864,2.4864,0,0,0,0,0,0,0,0,2.4975,2.4973,2.4949,2.4947,2.4944,2.4922,2.4936,2.4922,2.4898,2.4915,2.4896,2.4894,2.4885,2.4883,2.488,2.4884,2.4883,2.4864,2.4864,2.4864,2.4864,0,0,0,0,0,0,0,2.4976,2.4974,2.4959,2.4949,2.4946,2.4935,2.4932,2.4933,2.4907,2.4914,2.491,2.4907,2.4883,2.488,2.4879,2.4883,2.4864,2.4864,2.4864,2.4864,2.4902,2.4903,0,0,0,0,0,0,2.4981,2.4975,2.496,2.4958,2.4957,2.4936,2.4932,2.493,2.4906,2.4902,2.4908,2.4906,2.4881,2.4879,2.4878,2.49,2.4864,2.4864,2.4864,2.4901,2.4902,2.4903,0,0,0,0,0,0,2.4981,2.498,2.4961,2.4966,2.4963,2.4937,2.4935,2.493,2.4927,2.4903,2.4898,2.491,2.488,2.4878,2.4884,2.4898,2.4864,2.4864,2.4899,2.4901,2.4902,2.4944,0,0,0,0,0,0,2.4982,2.498,2.4988,2.4966,2.4962,2.4968,2.4936,2.493,2.4927,2.4923,2.4903,2.4898,2.4879,2.4884,2.4884,2.4897,2.4864,2.4898,2.49,2.4902,2.4941,2.4947,2.4952,0,0,0,0,0,2.4983,2.5001,2.4989,2.4987,2.4971,2.4969,2.4967,2.4944,2.4928,2.4935,2.492,2.4899,2.4897,2.4885,2.4884,2.4898,2.4897,2.4899,2.4902,2.4939,2.4946,2.4952,0,0,0,0,0,0,2.5025,2.4998,2.4984,2.4995,2.4985,2.4962,2.497,2.4952,2.4946,2.4942,2.4915,2.491,2.492,2.4909,2.4897,2.4916,2.4894,2.4896,2.4922,2.4929,2.4934,2.4936,2.4863,0,0,0,0,0,2.5036,2.5036,2.5012,2.5024,2.502,2.4996,2.4994,2.4978,2.4965,2.4961,2.4945,2.4935,2.4931,2.493,2.4925,2.494,2.4935,2.4949,2.4954,2.4959,2.4961,2.4967,2.4973,2.4911,2.4911,2.4911,0,0,2.5058,2.5043,2.5044,2.5033,2.5022,2.5023,2.4993,2.4995,2.4994,2.4961,2.4965,2.4954,2.494,2.495,2.4954,2.4942,2.4977,2.4962,2.4966,2.4965,2.497,2.4976,2.4981,2.4913,2.4913,2.4912,0,0,2.5098,2.5087,2.5095,2.5086,2.5071,2.5055,2.5057,2.5037,2.5028,2.5032,2.5007,2.5006,2.5002,2.4992,2.4987,2.5024,2.5004,2.5023,2.505,2.5057,2.5061,2.5065,2.5077,2.5082,2.5025,2.5026,2.5026,0,2.5127,2.5126,2.5102,2.5106,2.5101,2.5071,2.5079,2.5071,2.5056,2.5053,2.504,2.5033,2.5021,2.5029,2.5038,2.5035,2.5036,2.5025,2.5063,2.5066,2.507,2.5081,2.5086,2.5028,2.5028,2.5027,2.5027,0,2.5162,2.5163,2.5171,2.5157,2.5153,2.5159,2.5136,2.5135,2.5119,2.5105,2.5109,2.5094,2.5086,2.5087,2.5071,2.5092,2.5085,2.5068,2.5044,2.5079,2.5088,2.5093,2.5031,2.503,2.503,2.5029,0,0,2.5227,2.5199,2.5203,2.5196,2.5177,2.5177,2.5181,2.5173,2.5173,2.5163,2.5166,2.5163,2.5147,2.5141,2.5124,2.513,2.5159,2.5112,2.5111,2.512,2.5179,2.5191,2.5197,2.5146,2.5147,2.5147,2.518,0,2.5262,2.5268,2.5247,2.5258,2.5258,2.523,2.5234,2.5223,2.5209,2.5207,2.5192,2.519,2.5169,2.5165,2.517,2.5154,2.517,2.5152,2.5147,2.5148,2.5151,2.5202,2.5215,2.5246,2.5184,2.5184,2.5185,0,2.5304,2.5297,2.5308,2.5288,2.5287,2.5291,2.5282,2.528,2.5267,2.5257,2.5251,2.5231,2.5234,2.5212,2.5215,2.5204,2.5201,2.5193,2.5194,2.5191,2.5168,2.52,2.5256,2.526,2.5191,2.519,2.519,0,2.5349,2.5342,2.5347,2.5342,2.532,2.5323,2.5314,2.53,2.5296,2.5288,2.5285,2.5278,2.5274,2.5268,2.5247,2.5234,2.5253,2.523,2.5244,2.5244,2.5248,2.5248,2.5303,2.5248,2.5248,2.5248,2.5248,0,2.539,2.5398,2.5367,2.5371,2.5378,2.5354,2.5362,2.535,2.5338,2.5338,2.5314,2.5315,2.5287,2.5285,2.5269,2.5273,2.5272,2.5263,2.5259,2.5265,2.5266,2.5262,2.5259,2.5249,2.5249,2.5249,2.5249,0,2.5441,2.5421,2.5425,2.5403,2.5398,2.5405,2.5386,2.5388,2.5374,2.5374,2.5373,2.535,2.5346,2.5325,2.5316,2.5305,2.5315,2.5307,2.5319,2.5316,2.5331,2.5329,2.5384,2.539,2.5333,2.5334,2.5334,0,2.5468,2.5473,2.5452,2.5451,2.5443,2.5441,2.5437,2.5413,2.541,2.5395,2.5399,2.5393,2.5387,2.5382,2.5364,2.5357,2.5348,2.5367,2.5346,2.5352,2.5347,2.5346,2.5346,2.5372,2.5372,2.5373,2.5373,0,2.5517,2.5507,2.5503,2.5495,2.5491,2.5483,2.5474,2.5475,2.5448,2.5446,2.5442,2.5437,2.5428,2.5422,2.5412,2.5402,2.5383,2.538,2.5383,2.5389,2.5396,2.5391,2.533,2.5379,2.5378,2.5378,2.5378,2.5377,2.5556,2.5559,2.5545,2.5541,2.5532,2.5524,2.5524,2.551,2.5506,2.5496,2.5483,2.548,2.5466,2.5451,2.5443,2.544,2.5429,2.5434,2.5434,2.5435,2.5438,2.5397,2.5438,2.5438,2.5438,2.5438,2.5438,0,2.5604,2.5593,2.5589,2.5578,2.5574,2.5557,2.5546,2.5544,2.5542,2.5531,2.5526,2.5521,2.5515,2.5497,2.5489,2.549,2.5481,2.5489,2.5488,2.5486,2.5449,2.5447,2.5496,2.5496,2.5496,2.5496,2.5496,2.5496,2.5628,2.5632,2.562,2.5619,2.5609,2.5606,2.5601,2.5594,2.5584,2.558,2.5575,2.5563,2.5549,2.554,2.5534,2.5529,2.5526,2.5537,2.5529,2.5494,2.5489,2.5483,2.5481,2.5537,2.5537,2.5565,2.5566,2.5566]}]]